Weather observations for the past three days for
Santa Rosa, Santa Rosa Sonoma County Airport
Metric (Imperial)
Date Time (pdt) Wind (kph) Vis. (km) Weather Sky Cond. Temperature (ºC) Relative Humidity Wind Chill (°C) Heat Index (°C) Pressure Precipitation (cm)
Air Dwpt 6 hour altimeter (cm) sea level (mb) 1 hr 3 hr 6 hr
Max. Min.
21 09:53 NW 9 16.09 Fair CLR 23.3 7.8 37% 76.1 1014.0
21 08:53 NW 7 16.09 Fair CLR 19.4 9.4 53% 76.12 1014.2
21 07:53 W 7 16.09 Fair CLR 13.3 10.6 84% 76.1 1014.0
21 06:53 Calm 16.09 Fair CLR 8.3 7.8 97% 76.1 1013.9
21 05:53 Calm 9.66 Fog/Mist CLR 7.2 6.7 97% 76.07 1013.6
21 04:53 SE 6 11.27 Fair CLR 7.2 6.7 12.8 7.2 97% 76.05 1013.4
21 03:53 Calm 12.87 Fair CLR 8.3 7.2 93% 76.05 1013.0
21 02:53 W 6 12.87 Fair CLR 8.3 7.2 93% 76.05 1013.1
21 01:53 SE 6 12.87 Fair CLR 9.4 8.3 93% 76.05 1013.2
21 00:53 Calm 12.87 Fair CLR 10.6 8.3 86% 76.07 1013.4
20 23:53 Calm 12.87 Fair CLR 10.6 7.8 83% 76.07 1013.6
20 22:53 Calm 14.48 Fair CLR 12.8 8.3 24.4 12.8 74% 76.1 1013.8
20 21:53 S 9 14.48 Fair CLR 13.9 8.9 72% 76.07 1013.5
20 20:53 S 11 16.09 Fair CLR 16.1 10 67% 76.02 1012.9
20 19:53 S 11 16.09 Fair CLR 19.4 10 55% 76 1012.4
20 18:53 SE 17 16.09 Fair CLR 21.7 10 47% 75.95 1012.0
20 17:53 S 19 16.09 A Few Clouds FEW050 23.9 7.8 36% 25 75.95 1012.0
20 16:53 S 17 16.09 A Few Clouds FEW050 24.4 7.8 25 20 35% 25 75.97 1012.3
20 15:53 S 17 16.09 A Few Clouds FEW050 24.4 6.7 32% 25 76 1012.6
20 14:53 S 20 16.09 A Few Clouds FEW050 23.9 8.9 39% 25 76.02 1013.0
20 13:53 S 22 16.09 A Few Clouds FEW050 23.9 8.9 39% 25 76.05 1013.4
20 12:53 SW 15 16.09 Fair CLR 23.3 11.1 46% 76.07 1013.5
20 11:53 Vrbl 6 16.09 Fair CLR 22.8 8.9 41% 76.1 1013.9
20 10:53 Vrbl 6 16.09 Fair CLR 20 8.9 20 6.7 49% 76.12 1014.2
20 09:53 Calm 16.09 Fair CLR 17.8 8.3 54% 76.12 1014.3
20 08:53 Calm 16.09 Fair CLR 14.4 8.3 67% 76.15 1014.6
20 07:53 Calm 14.48 Fair CLR 11.1 8.3 83% 76.12 1014.3
20 06:53 Calm 14.48 Fair CLR 8.3 7.2 93% 76.07 1013.6
20 05:53 Calm 14.48 Fair CLR 7.2 6.7 97% 76.02 1012.9
20 04:53 Calm 14.48 Fair CLR 7.8 7.2 12.2 7.2 96% 76 1012.4
20 03:53 Calm 16.09 Fair CLR 8.3 7.2 93% 75.97 1012.2
20 02:53 S 6 14.48 Fair CLR 8.9 7.2 89% 75.97 1012.3
20 01:53 Calm 16.09 Fair CLR 9.4 7.8 90% 76 1012.4
20 00:53 Calm 16.09 Fair CLR 10 7.8 86% 76 1012.5
19 23:53 S 7 16.09 Fair CLR 11.1 7.8 80% 76 1012.4
19 22:53 S 9 16.09 Fair CLR 11.7 8.3 24.4 11.7 80% 76 1012.6
19 21:53 Calm 16.09 Fair CLR 13.3 8.9 75% 75.97 1012.4
19 20:53 SE 7 16.09 Fair CLR 16.1 9.4 65% 75.95 1011.8
19 19:53 S 7 16.09 Fair CLR 19.4 10.6 57% 75.95 1011.8
19 18:53 S 13 16.09 Fair CLR 22.2 10.6 48% 75.92 1011.6
19 17:53 S 15 16.09 Fair CLR 23.9 11.1 45% 25 75.95 1011.8
19 16:53 SE 17 16.09 Fair with Haze CLR 24.4 11.7 25 17.2 45% 26 75.97 1012.3
19 15:53 S 19 16.09 Fair with Haze CLR 23.9 11.7 46% 25 76.02 1012.8
19 14:53 S 13 G 28 16.09 Fair with Haze CLR 23.9 11.7 46% 25 76.1 1013.9
19 13:53 S 15 16.09 Fair with Haze CLR 22.2 11.7 52% 76.15 1014.5
19 12:53 S 17 16.09 Fair with Haze CLR 21.1 11.7 55% 76.2 1015.3
19 11:53 SE 9 14.48 Fair with Haze CLR 20.6 10 51% 76.25 1015.9
19 10:53 Vrbl 7 16.09 Fair with Haze CLR 17.2 9.4 17.2 10.6 60% 76.28 1016.3
19 09:53 SE 6 16.09 Fair CLR 15 9.4 69% 76.3 1016.5
19 08:53 Vrbl 9 16.09 A Few Clouds FEW012 12.8 8.9 77% 76.3 1016.4
19 07:53 S 6 16.09 Overcast OVC011 11.7 8.9 83% 76.28 1016.2
19 06:53 SW 7 11.27 Overcast OVC012 11.1 8.9 86% 76.25 1016.0
19 05:53 S 7 14.48 Overcast OVC012 10.6 8.9 89% 76.2 1015.3
19 04:53 S 7 12.87 Overcast OVC013 11.1 9.4 11.1 11.1 89% 76.2 1015.1
19 03:53 SW 6 14.48 Overcast OVC012 11.1 9.4 89% 76.17 1014.8
19 02:53 S 6 12.87 Overcast OVC012 11.1 8.9 86% 76.15 1014.7
19 01:53 Calm 12.87 Overcast OVC010 11.1 9.4 89% 76.17 1014.9
19 00:53 Calm 12.87 Overcast OVC009 11.1 8.9 86% 76.17 1015.0
18 23:53 S 7 12.87 Overcast OVC009 11.1 9.4 89% 76.17 1014.9
18 22:53 S 7 16.09 Overcast OVC008 11.1 9.4 17.2 11.1 89% 76.17 1014.9
18 21:53 SE 9 16.09 Overcast OVC007 11.7 10 89% 76.12 1014.3
18 20:53 S 13 14.48 Overcast OVC009 12.2 10 87% 76.07 1013.6
18 19:53 S 15 14.48 Fair CLR 13.3 10.6 84% 76.02 1013.0
18 18:53 S 15 16.09 A Few Clouds FEW025 15 10.6 75% 76.02 1012.9
18 17:53 S 19 14.48 A Few Clouds with Haze FEW025 16.1 10.6 70% 76.02 1012.9
18 16:53 S 20 16.09 Partly Cloudy with Haze SCT025 17.2 11.1 18.3 13.9 68% 76.05 1013.1
18 15:53 S 17 11.27 Mostly Cloudy BKN019 17.8 11.7 68% 76.07 1013.5
18 14:53 SW 22 G 31 12.87 Overcast OVC019 16.7 11.7 73% 76.1 1013.9
18 13:53 SW 17 G 30 12.87 Overcast OVC018 16.7 11.7 73% 76.12 1014.3
18 12:53 S 13 14.48 Overcast OVC013 15.6 11.7 78% 76.15 1014.5
18 11:53 S 13 14.48 Overcast OVC013 14.4 11.1 81% 76.15 1014.5
18 10:53 S 11 14.48 Overcast OVC009 13.9 11.1 13.9 10.6 83% 76.15 1014.5
Date Time (pdt) Wind (kph) Vis. (km) Weather Sky Cond. Air Dwpt Max. Min. Relative Humidity Wind Chill (°C) Heat Index (°C) altimeter (cm) sea level (mb) 1 hr 3 hr 6 hr
6 hour
Temperature (ºC) Pressure Precipitation (cm)